Albany, NY

3:46 AM EDT on April 30, 2017 (GMT -0400)
Albany International

Weather History for KALB - May, 2014

Change the Weather History Date:

Wednesday, May 7, 2014

  Actual Average Record
Temperature  
Mean Temperature 50 °F 56 °F  
Max Temperature 66 °F 67 °F 92 °F (1930)
Min Temperature 34 °F 44 °F 29 °F (1874)
Degree Days  
Heating Degree Days 15 10  
Month to date heating degree days 81 75  
Since 1 July heating degree days 6870 6468  
Cooling Degree Days 0 0  
Month to date cooling degree days 0 0  
Year to date cooling degree days 6 4  
Moisture  
Dew Point 29 °F    
Average Humidity 49    
Maximum Humidity 75    
Minimum Humidity 23    
Precipitation  
Precipitation 0.00 in 0.11 in 1.30 in (1908)
Month to date precipitation 0.23 0.76  
Year to date precipitation 11.18 11.93  
Snow  
Snow 0.00 in 0.10 in 0.20 in (1967)
Month to date snowfall 0.0 0.1  
Since 1 July snowfall 73.5 60.3  
Snow Depth 0.00 in    
Sea Level Pressure  
Sea Level Pressure 30.18 in    
Wind  
Wind Speed 3 mph (NE)    
Max Wind Speed 12 mph    
Max Gust Speed 17 mph    
Visibility 10 miles    
Events      
T = Trace of Precipitation, MM = Missing Value Source: NWS Daily Summary

Daily Weather History Graph

Daily Weather History Graph

Search for Another Location

Airport or City:

Trip Planner

Search our weather history database for the weather conditions in past years. The results will help you decide how hot, cold, wet, or windy it might be!

Date:

Astronomy

May. 07, 2014 Rise Set
Actual Time 5:41 AM EDT 8:02 PM EDT
Civil Twilight 5:10 AM EDT 8:34 PM EDT
Nautical Twilight 4:31 AM EDT 9:13 PM EDT
Astronomical Twilight 3:47 AM EDT 9:57 PM EDT
Moon 12:55 PM EDT (5/7) 1:49 AM EDT (5/7)
Length of Visible Light 15h 23m
Length of Day
14h 20m
First Quarter, 55% of the Moon is Illuminated
May 7
First Quarter
May 14
Full
May 21
Last Quarter
May 28
New
Jun 5
First Quarter

Hourly Weather History & Observations

Time (EDT) Temp. Windchill Dew Point Humidity Pressure Visibility Wind Dir Wind Speed Gust Speed Precip Events Conditions
12:51 AM 44.6 °F - 28.4 °F 53% 30.11 in 10.0 mi Calm Calm - N/A   Clear
1:51 AM 39.2 °F - 28.4 °F 65% 30.13 in 10.0 mi Calm Calm - N/A   Partly Cloudy
2:51 AM 41.0 °F - 28.0 °F 60% 30.14 in 10.0 mi Calm Calm - N/A   Partly Cloudy
3:51 AM 41.0 °F - 27.0 °F 57% 30.17 in 10.0 mi Calm Calm - N/A   Partly Cloudy
4:51 AM 41.0 °F - 28.0 °F 60% 30.17 in 10.0 mi Calm Calm - N/A   Partly Cloudy
5:51 AM 36.0 °F 33.3 °F 28.0 °F 73% 30.19 in 10.0 mi NE 3.5 mph - N/A   Partly Cloudy
6:51 AM 39.0 °F - 30.9 °F 73% 30.21 in 10.0 mi Calm Calm - N/A   Partly Cloudy
7:51 AM 46.0 °F 44.8 °F 32.0 °F 58% 30.23 in 10.0 mi NNW 3.5 mph - N/A   Partly Cloudy
8:51 AM 50.0 °F - 30.9 °F 48% 30.25 in 10.0 mi Variable 3.5 mph - N/A   Partly Cloudy
9:51 AM 53.1 °F - 32.0 °F 45% 30.27 in 10.0 mi NNE 4.6 mph - N/A   Scattered Clouds
10:51 AM 55.9 °F - 33.1 °F 42% 30.26 in 10.0 mi Variable 4.6 mph - N/A   Mostly Cloudy
11:51 AM 57.9 °F - 30.0 °F 35% 30.24 in 10.0 mi NNW 5.8 mph - N/A   Mostly Cloudy
12:51 PM 59.0 °F - 28.9 °F 32% 30.22 in 10.0 mi Variable 5.8 mph - N/A   Mostly Cloudy
1:51 PM 63.0 °F - 27.0 °F 26% 30.20 in 10.0 mi Variable 5.8 mph - N/A   Mostly Cloudy
2:51 PM 64.9 °F - 28.0 °F 25% 30.19 in 10.0 mi WNW 10.4 mph 17.3 mph N/A   Overcast
3:51 PM 64.0 °F - 26.1 °F 24% 30.17 in 10.0 mi Calm Calm - N/A   Overcast
4:51 PM 64.4 °F - 26.6 °F 24% 30.15 in 10.0 mi Calm Calm - N/A   Overcast
5:51 PM 64.4 °F - 28.4 °F 26% 30.14 in 10.0 mi East 5.8 mph - N/A   Overcast
6:51 PM 64.0 °F - 26.1 °F 24% 30.14 in 10.0 mi East 5.8 mph - N/A   Mostly Cloudy
7:51 PM 63.0 °F - 25.0 °F 24% 30.16 in 10.0 mi ESE 3.5 mph - N/A   Mostly Cloudy
8:51 PM 60.1 °F - 27.0 °F 28% 30.17 in 10.0 mi SSE 3.5 mph - N/A   Mostly Cloudy
9:51 PM 54.0 °F - 28.0 °F 37% 30.16 in 10.0 mi Calm Calm - N/A   Mostly Cloudy
10:51 PM 51.1 °F - 30.0 °F 44% 30.17 in 10.0 mi Calm Calm - N/A   Mostly Cloudy
11:51 PM 48.9 °F - 28.9 °F 46% 30.17 in 10.0 mi Calm Calm - N/A   Mostly Cloudy